Погода в Аяне

Погода в Аяне : погода сейчас, прогноз погоды и архив. Всё, что Вы хотите узнать о погоде в Аяне!

Хотите узнать прогноз погоды в Аяне? Тогда Вам сюда: Погода в Аяне

Поиск расширенной информации на нашем сайте:

Другие новости

Новости СМИ2

Главная страница сайта

Новости сайта

02.10.2013

Напоминаем, что на нашем новом сайте вы можете получить высокодетализированные прогнозы погоды по пунктам России, СНГ и мира (включающие важные для авиации метеовеличины, такие как направление и скорость ветра, видимость, явления погоды, количество и форма облачности, нижняя и верхняя граница облачности), а также ознакомиться с разнообразными материалами по авиационной метеорологии и подборкой полезных ссылок на эту тему.

Сайт Метеоцентр.Азия посвящён разработке технологий оптимизации авиаметеорологического обслуживания, включая проектирование и перспективное создание нескольких автоматизированных авиаметеорологических систем:
- система выпуска высокодетальных прогностических карт явлений погоды для нижнего воздушного пространства по России и ближнему зарубежью;
- система верификации прогнозов TAF (выпускаемых синоптиками официальных АМСГ РФ и ближнего зарубежья) и AUTOTAF (выпускаемых сайтом Метеоцентр.Азия) - выявление ошибок, онлайн-сопоставление с фактической погодой METAR, автоматическое внесение коррективов в прогнозы при резком отклонении фактической погоды от прогноза, подсчёт оправдываемости прогнозов по элементам и в целом;
- система обработки, анализа и отображения авиаметеорологической информации для применения провайдерами метеорологической информации.


Погода в Аяне - сегодня

Время (UTC), дата Ветер
(°,м/с) 
Видим.   Явления Облачность Т
(°С)
Тd
(°С)
f(%) Тe
(°С)
Pmin
(гПа)
dP
(гПа)
Po
(мм)
O2
(г/м3)
Тmin Tmax R s Состояние
почвы
00 25.05.17 190 (Ю) 20000 м    4/0 верхняя 
[Ci fib]
+6 +1.4 72 +4  1011.3  -1.4  758  299           
03 25.05.17 180 (Ю) 7-11{11}  20000 м    6/0 верхняя 
[Ci]
+6.9 +1.7 69 +4  1009.3  -2  756  297           
06 25.05.17 180 (Ю) 7-12{14}  20000 м    4/0 верхняя 
[Ci fib]
+6.7 +1.1 67 +4  1007.1  -2.2  755  297           
09 25.05.17 180 (Ю) 7{12}  20000 м    3/0 верхняя 
[Ci fib]
+4.7 +1.8 81 +2  1005.3  -1.7  753  298    +7.4       
12 25.05.17 030 (СВ) 20000 м    9/0 средняя, верхняя 
[Ac cast|Ci fib]
+3.5 +1 84 +4  1005.3  753  300           
15 25.05.17 020 (С) 20000 м    10/0 средняя, верхняя 
[Ac cast|Ci fib]
+3.7 +2.3 91 +2  1004  -1.4  752  299           
18 25.05.17 020 (С) 20000 м    10/0 средняя 
[Ac und]
+4 +2.4 89 +2  1002.6  -1.3  751  298           
21 25.05.17 020 (С) 10 км  слаб. дождь  10/10 1000 м 
[Sc]
+4.2 +2.8 91 +2  1002.5  0.1  751  298  +2.5    0.3    влажная 
00 26.05.17 230 (ЮЗ) 10 км  слаб. дождь  10/10 1000 м 
[Sc]
+5.1 +3.8 91 +5  1003.2  0.6  752  297           
03 26.05.17 210 (ЮЗ) 20000 м  {дождь}  6/0 средняя 
[Ac trans]
+9.2 +3.5 67 +9  1002.8  -0.4  752  292           
06 26.05.17 220 (ЮЗ) 20000 м  {дождь}  8/5 1000 м средняя, верхняя 
[Cu hum|Ac trans|Ci]
+12.6 +4 56 +12  1002.5  -0.3  751  289           
09 26.05.17 190 (Ю) 20000 м    10/0 средняя 
[Ac und]
+10.2 +3.9 65 +10  1002.2  -0.2  751  291    +17.2     
12 26.05.17 010 (С) 20000 м    1/0 верхняя 
[Ci fib]
+4.9 +3.4 90 +2  1004.3  2.1  753  297           
15 26.05.17 030 (СВ) 20000 м    10/10 100 м 
[St]
+4 +2.9 93 +2  1004.8  0.5  753  299           
18 26.05.17 030 (СВ) 20000 м    10/10 100 м 
[St]
+2.1 +1.8 98 1005  0.1  753  301           
21 26.05.17 040 (СВ) 0500 м  слаб. дождь{туман}  ?/?  
+2.6 +2.3 98 +1  1005.1  -0.1  753  300  +2    0.0    влажная 
00 27.05.17 030 (СВ) 0500 м  туман{дождь}  ?/?  
+3.5 +2.6 94 +1  1004.9  -0.1  753  299           
12 27.05.17 020 (С) 20000 м    10/0 средняя 
[Ac lent]
+3.5 +2.4 92 +3  1004.7  0.1  753  299           
15 27.05.17 230 (ЮЗ) 20000 м    10/0 средняя 
[Ac lent]
+3.1 +2.5 96 +3  1004.3  -0.3  753  300           
18 27.05.17 170 (Ю) 10 км  слаб. дождь  10/10 600 м 
[Sc]
+4.1 +3.2 94 +5  1004.2  753  298           
21 27.05.17 340 (С) 10 км  слаб. дождь  10/10 600 м 
[Sc]
+7.9 +7.3 96 +9  1003.9  -0.3  752  293  +1.6      мокрая 
03 28.05.17 020 (С) 4000 м  ливневой дождь  10/10 600 м кучево-дожд. 
[Cb cap]
+10.6 +9.6 94 +12  1003.4  0.3  752  290           
06 28.05.17 020 (С) 10 км  слаб. ливневой дождь  10/10 200 м кучево-дожд. 
[Cb cap]
+7.2 +6.1 93 +6  1002.9  -0.5  752  294           
12 28.05.17 360 (С) 20000 м  {ливн. осадки}  10/0 средняя 
[Ac und]
+7.4 +6.1 91 +7  1002.5  0.4  751  294           
15 28.05.17 360 (С) 20000 м    10/0 средняя 
[Ac und]
+6.5 +5.5 93 +6  1001.7  -0.7  751  295           
Время (UTC), дата Ветер
(°,м/с) 
Видим.   Явления Облачность Т
(°С)
Тd
(°С)
f(%) Тe
(°С)
Pmin
(гПа)
dP
(гПа)
Po
(мм)
O2
(г/м3)
Тmin Tmax R s Состояние
почвы

Для получения пояснительной информации подведите курсор к названию столбца.

ПОГОДА в Аяне - архив

Всё, что Вы хотите узнать о погоде в Аяне - удобно и подробно!

Выберите нужную дату (начиная с 1 января 2015* года) и нажмите кнопку "Найти".
Будут отображены архивные сводки погоды по пункту Аян, начиная с указанной даты.


Отображать данные в формате CSV (для использования в таблицах Excel)


Внимание! Наш архив погоды предназначен исключительно для личного некоммерческого использования в познавательных целях. Если Вам необходимы официальные справки о состоянии погоды (для производственных, юридических, коммерческих и т.п. целей), обращайтесь в органы Росгидромета.

*Примечание: данная дата относится к архиву по метеостанциям СССР (Россия, СНГ, Балтия).
Архив по метеостанциям Зарубежной Европы и Азии (кроме Китая) хранится 10 дней, по другим регионам земного шара (Китай, Африка, Америка, Австралия, Океания) - 1 день.

Аян - район местоположения метеостанции


Название, широта, долгота, высота метеостанции:
Аян 56.4°ш. 138.2°д. 8 м над ур. моря [Российская Федерация]

Дополнительная информация

В oтличие oт бoльшинства пoгoдных сайтoв мы публикуем пoдрoбную метеoинфoрмацию в детальнoм прoфессиoнальнoм фoрмате.

Характеристики температуры и влажнoсти вoздуха измеряются на высoте 2 м в тени вдали oт зданий и деревьев.
Скoрoсть ветра измеряется на высoте 10 м (на урoвне рoста челoвека скoрoсть ветра ниже в 1.5-2 раза). Если метеoстанция нахoдится в гoрoде или в лесу, тo скoрoсть ветра занижена на 2-4 м/с пo сравнению с oткрытым местoм. Скoрoсть ветра над акватoриями крупных рек и oзёр, а также на вершинах хoлмoв на 2-5 м/с выше, чем в oбычных услoвиях.
Атмoсфернoе давление в разных тoчках местнoсти мoжет значительнo oтличаться oт давления на метеoстанции, в зависимoсти oт услoвий рельефа (при пoдъёме на 10 м давление пoнижается примернo на 1 мм рт.ст.).